Simultaneous Nadir Overpasses (SNOs) Predictions

Prediction of SNOs between AQUA and METOP-B Satellite Orbit:

Table of predicted SNOs for the next 14.0 days since TLE Epoch: 10/26/2018
Index Date (AQUA) Time (AQUA) Lat,Lon (AQUA) SZA (AQUA ) Date (METOP-B) Time (METOP-B) Lat,Lon (METOP-B) SZA (METOP-B ) Distance(km) Time Diff (sec)
1 10/29/2018 16:08:00 73.95, -68.03 87.45 10/29/2018 16:07:25 73.94, -68.05 87.45 1.17 35
2 10/29/2018 16:57:27 -74.00, 99.51 92.49 10/29/2018 16:58:05 -74.02, 99.47 92.47 3.22 38
3 11/01/2018 11:42:14 73.94, -1.57 88.36 11/01/2018 11:41:46 73.96, -1.59 88.38 2.45 28
4 11/01/2018 12:31:42 -74.03, 165.86 91.54 11/01/2018 12:32:26 -74.05, 165.94 91.53 2.72 44
5 11/04/2018 06:26:48 -73.25,-101.28 91.48 11/04/2018 06:25:43 -73.19,-104.29 91.50 96.74 65
6 11/04/2018 07:16:28 73.94, 64.87 89.24 11/04/2018 07:16:08 73.94, 64.75 89.24 3.63 20
7 11/04/2018 08:05:56 -74.02,-127.68 90.67 11/04/2018 08:06:48 -74.02,-127.72 90.68 1.68 52
8 11/07/2018 02:01:07 -73.56, -35.49 90.31 11/07/2018 01:59:57 -73.51, -37.17 90.34 53.12 70
9 11/07/2018 02:50:41 73.94, 131.31 90.09 11/07/2018 02:50:28 73.95, 131.21 90.11 3.13 13
10 11/07/2018 03:40:09 -74.02, -61.23 89.82 11/07/2018 03:41:08 -74.03, -61.27 89.81 1.57 59
11 11/09/2018 21:35:26 -73.82, 30.38 89.23 11/09/2018 21:34:13 -73.77, 29.86 89.27 17.04 73
12 11/09/2018 22:24:55 73.95,-162.27 90.92 11/09/2018 22:24:49 73.97,-162.34 90.94 2.80 6




NCC Satellite Simultaneous Nadir Overpasses (SNOs) Prediction Service
